,,PA_Meas_PMT16A,,PR_Meas_QMR101_102,,RH_Meas_QMH101,,SR_Meas_QMS101,,TA_Meas_QMH101,,GenWind,,GenWind,
time,status,PA,status,PR,status,RH,status,SR,status,TA,status,DirAvg,status,SpdAvg,
2016-11-28, 15:28:04,VALID,918.83,VALID,0,INVALID,119.871,VALID,136.45,VALID,20.1529,VALID,276,VALID,0,
2016-11-28, 15:29:04,VALID,918.829,VALID,0,INVALID,120.336,VALID,139.673,VALID,20.0553,VALID,250,VALID,0,
2016-11-28, 15:30:04,VALID,918.838,VALID,0,INVALID,120.519,VALID,142.467,VALID,20.0764,VALID,172,VALID,0,
2016-11-28, 15:31:04,VALID,918.838,VALID,0,INVALID,120.618,VALID,138.169,VALID,20.0944,VALID,189,VALID,0,
2016-11-28, 15:34:04,VALID,918.879,VALID,0,INVALID,121.708,VALID,136.987,VALID,20.0163,VALID,185,VALID,0.717188,
2016-11-28, 15:35:04,VALID,918.941,VALID,0,INVALID,121.776,VALID,141.178,VALID,20.0944,VALID,339,VALID,0.747656,
2016-11-28, 15:36:04,VALID,918.912,VALID,0,INVALID,121.929,VALID,144.508,VALID,20.1334,VALID,270,VALID,0.0195313,
2016-11-28, 15:37:04,VALID,918.93,VALID,0,INVALID,122.226,VALID,144.401,VALID,20.1334,VALID,153,VALID,0.376953,
2016-11-28, 15:38:04,VALID,918.942,VALID,0,INVALID,122.714,VALID,143.219,VALID,20.1139,VALID,278,VALID,0.697656,
2016-11-28, 15:39:04,VALID,918.952,VALID,0,INVALID,122.836,VALID,141.393,VALID,20.1529,VALID,272,VALID,0,
2016-11-28, 15:40:04,VALID,918.971,VALID,0,INVALID,123.072,VALID,140.855,VALID,20.1919,VALID,272,VALID,0,
2016-11-28, 15:41:04,VALID,918.978,VALID,0,INVALID,123.438,VALID,141.393,VALID,20.1318,VALID,272,VALID,0,
2016-11-28, 15:42:04,VALID,918.988,VALID,0,INVALID,123.652,VALID,147.624,VALID,20.1708,VALID,277,VALID,0,
2016-11-28, 15:43:04,VALID,918.992,VALID,0,INVALID,123.98,VALID,154.823,VALID,20.1513,VALID,331,VALID,0,
2016-11-28, 15:44:04,VALID,918.997,VALID,0,INVALID,124.002,VALID,156.864,VALID,20.2098,VALID,11,VALID,0,
2016-11-28, 15:45:04,VALID,919.012,VALID,0,INVALID,123.987,VALID,157.079,VALID,20.3074,VALID,22,VALID,0.157031,
2016-11-28, 15:46:04,VALID,919.014,VALID,0,INVALID,123.941,VALID,155.467,VALID,20.4064,VALID,40,VALID,0,
2016-11-28, 15:47:04,VALID,919.024,VALID,0,INVALID,123.903,VALID,149.558,VALID,20.4845,VALID,9,VALID,0.00195313,
2016-11-28, 15:48:04,VALID,919.074,VALID,0,INVALID,124.117,VALID,143.326,VALID,20.4634,INVALID,360,VALID,0,
2016-11-28, 15:49:04,VALID,919.075,VALID,0,INVALID,124.338,VALID,137.954,VALID,20.3854,VALID,257,VALID,0,
2016-11-28, 15:50:04,VALID,919.077,VALID,0,INVALID,124.399,VALID,138.169,VALID,20.3854,VALID,243,VALID,0,
2016-11-28, 15:51:04,VALID,919.095,VALID,0,INVALID,124.445,VALID,140.855,VALID,20.3854,VALID,244,VALID,0,
2016-11-28, 15:52:04,VALID,919.105,VALID,0,INVALID,124.437,VALID,142.897,VALID,20.4454,VALID,244,VALID,0,
2016-11-28, 15:53:04,VALID,919.122,VALID,0,INVALID,124.361,VALID,140.855,VALID,20.4829,VALID,356,VALID,0,
2016-11-28, 15:54:04,VALID,919.122,VALID,0,INVALID,124.437,VALID,140.748,VALID,20.5024,VALID,344,VALID,0,
2016-11-28, 15:55:04,VALID,919.097,VALID,0,INVALID,124.468,VALID,142.574,VALID,20.5024,VALID,31,VALID,0,
2016-11-28, 15:56:04,VALID,919.118,VALID,0,INVALID,124.483,VALID,142.789,VALID,20.5219,VALID,32,VALID,0,
2016-11-28, 15:57:04,VALID,919.154,VALID,0,INVALID,124.49,VALID,142.574,VALID,20.5219,VALID,359,VALID,0,
2016-11-28, 15:58:04,VALID,919.196,VALID,0,INVALID,124.559,VALID,142.682,VALID,20.5009,VALID,349,VALID,0,
2016-11-28, 15:59:04,VALID,919.183,VALID,0,INVALID,124.582,VALID,143.971,VALID,20.5414,VALID,349,VALID,0,
2016-11-28, 16:00:04,VALID,919.196,VALID,0,INVALID,124.605,VALID,143.434,VALID,20.5414,VALID,344,VALID,0,
2016-11-28, 16:01:04,VALID,919.221,VALID,0,INVALID,124.696,VALID,143.112,VALID,20.5024,VALID,225,VALID,0,
2016-11-28, 16:02:04,VALID,919.239,VALID,0,INVALID,124.666,VALID,142.252,VALID,20.5414,VALID,242,VALID,0,
2016-11-28, 16:03:04,VALID,919.231,VALID,0,INVALID,124.696,VALID,143.112,VALID,20.5219,VALID,285,VALID,0,
2016-11-28, 16:04:04,VALID,919.284,VALID,0,INVALID,124.696,VALID,145.153,VALID,20.4845,VALID,1,VALID,0,
2016-11-28, 16:05:04,VALID,919.264,VALID,0,INVALID,124.696,VALID,142.037,VALID,20.465,VALID,323,VALID,0,
2016-11-28, 16:06:04,VALID,919.286,VALID,0,INVALID,124.658,VALID,133.012,VALID,20.4829,VALID,5,VALID,0,
2016-11-28, 16:07:04,VALID,919.262,VALID,0,INVALID,124.696,VALID,133.549,VALID,20.4439,VALID,47,VALID,0,
2016-11-28, 16:08:04,VALID,919.297,VALID,0,INVALID,124.711,VALID,145.583,VALID,20.4259,VALID,350,VALID,0,
2016-11-28, 16:09:04,VALID,919.292,VALID,0,INVALID,124.612,VALID,153.641,VALID,20.465,VALID,337,VALID,0,
2016-11-28, 16:10:04,VALID,919.297,VALID,0,INVALID,124.696,VALID,152.889,VALID,20.4454,VALID,299,VALID,0,
2016-11-28, 16:11:04,VALID,919.31,VALID,0,INVALID,124.742,VALID,153.533,VALID,20.3284,VALID,4,VALID,0,
2016-11-28, 16:12:04,VALID,919.316,VALID,0,INVALID,124.719,VALID,149.88,VALID,20.3659,VALID,359,VALID,2.32539,
2016-11-28, 16:13:04,VALID,919.291,VALID,0,INVALID,124.589,VALID,155.038,VALID,20.2489,VALID,23,VALID,1.55781,
2016-11-28, 16:14:04,VALID,919.319,VALID,0,INVALID,124.422,VALID,165.997,VALID,20.3269,VALID,213,VALID,0.963281,
2016-11-28, 16:15:04,VALID,919.293,VALID,0,INVALID,124.567,VALID,175.022,VALID,20.3854,VALID,259,VALID,1.10039,
2016-11-28, 16:16:04,VALID,919.314,VALID,0,INVALID,124.513,VALID,157.509,VALID,20.3659,VALID,247,VALID,1.30313,
2016-11-28, 16:17:04,VALID,919.348,VALID,0,INVALID,124.628,VALID,140.426,VALID,20.3448,VALID,263,VALID,0.842578,
2016-11-28, 16:18:04,VALID,919.371,VALID,0,INVALID,124.658,VALID,144.293,VALID,20.3854,VALID,250,VALID,0.696484,
2016-11-28, 16:19:04,VALID,919.401,VALID,0,INVALID,124.605,VALID,169.112,VALID,20.4244,VALID,224,VALID,0,
2016-11-28, 16:20:04,VALID,919.381,VALID,0,INVALID,124.429,VALID,168.683,VALID,20.5219,VALID,78,VALID,0.337891,
2016-11-28, 16:21:04,VALID,919.399,VALID,0,INVALID,124.506,VALID,168.897,VALID,20.5219,VALID,25,VALID,0,
2016-11-28, 16:22:04,VALID,919.375,VALID,0,INVALID,124.498,VALID,166.319,VALID,20.5219,VALID,7,VALID,0,
2016-11-28, 16:23:04,VALID,919.417,VALID,0,INVALID,124.3,VALID,164.17,VALID,20.5804,VALID,17,VALID,0,
2016-11-28, 16:24:04,VALID,919.404,VALID,0,INVALID,124.239,VALID,178.137,VALID,20.639,VALID,17,VALID,0,
2016-11-28, 16:25:04,VALID,919.397,VALID,0,INVALID,124.368,VALID,200.485,VALID,20.5999,VALID,304,VALID,0,
2016-11-28, 16:26:04,VALID,919.401,VALID,0,INVALID,124.628,VALID,220.469,VALID,20.4829,VALID,207,VALID,0,
2016-11-28, 16:27:04,VALID,919.394,VALID,0,INVALID,124.65,VALID,233.899,VALID,20.5024,VALID,191,VALID,0,
2016-11-28, 16:28:04,VALID,919.4,VALID,0,INVALID,124.658,VALID,250.016,VALID,20.5414,VALID,309,VALID,0,
2016-11-28, 16:29:04,VALID,919.424,VALID,0,INVALID,124.727,VALID,253.346,VALID,20.5219,VALID,326,VALID,0,
2016-11-28, 16:30:04,VALID,919.416,VALID,0,INVALID,124.772,VALID,245.396,VALID,20.5009,VALID,358,VALID,0,
2016-11-28, 16:31:04,VALID,919.442,VALID,0,INVALID,124.727,VALID,230.246,VALID,20.5609,VALID,49,VALID,0,
2016-11-28, 16:32:04,VALID,919.436,VALID,0,INVALID,124.719,VALID,228.205,VALID,20.6194,VALID,49,VALID,0,
2016-11-28, 16:33:04,VALID,919.426,VALID,0,INVALID,124.643,VALID,230.461,VALID,20.7365,VALID,252,VALID,0,
2016-11-28, 16:34:04,VALID,919.438,VALID,0,INVALID,124.597,VALID,229.817,VALID,20.795,VALID,247,VALID,0,
2016-11-28, 16:35:04,VALID,919.421,VALID,0,INVALID,124.681,VALID,231.643,VALID,20.834,VALID,244,VALID,0,
2016-11-28, 16:36:04,VALID,919.428,VALID,0,INVALID,124.727,VALID,225.089,VALID,20.7755,VALID,245,VALID,0,
2016-11-28, 16:37:04,VALID,919.45,VALID,0,INVALID,124.658,VALID,209.295,VALID,20.639,VALID,301,VALID,0,
2016-11-28, 16:38:04,VALID,919.445,VALID,0,INVALID,124.407,VALID,193.502,VALID,20.639,VALID,301,VALID,0,
2016-11-28, 16:39:04,VALID,919.477,VALID,0,INVALID,124.361,VALID,184.584,VALID,20.6975,VALID,301,VALID,0,
2016-11-28, 16:40:04,VALID,919.457,VALID,0,INVALID,124.46,VALID,167.608,VALID,20.7365,VALID,310,VALID,0,
2016-11-28, 16:41:04,VALID,919.437,VALID,0,INVALID,124.574,VALID,151.062,VALID,20.7755,VALID,351,VALID,0,
2016-11-28, 16:42:04,VALID,919.459,VALID,0,INVALID,124.567,VALID,143.756,VALID,20.7739,VALID,351,VALID,0,
2016-11-28, 16:43:04,VALID,919.481,VALID,0,INVALID,124.65,VALID,143.004,VALID,20.834,VALID,350,VALID,0,
2016-11-28, 16:44:04,VALID,919.48,VALID,0,INVALID,124.666,VALID,144.186,VALID,20.8324,INVALID,360,VALID,0,
2016-11-28, 16:45:04,VALID,919.5,VALID,0,INVALID,124.559,VALID,140.211,VALID,20.7349,VALID,296,VALID,0,
2016-11-28, 17:30:04,VALID,919.622,VALID,0,INVALID,124.437,VALID,139.351,VALID,19.8978,VALID,35,VALID,1.42891,
2016-11-28, 17:31:04,VALID,919.635,VALID,0,INVALID,124.376,VALID,154.823,VALID,19.8588,VALID,32,VALID,0.257422,
2016-11-28, 17:32:04,VALID,919.678,VALID,0,INVALID,124.239,VALID,154.178,VALID,19.8978,VALID,359,VALID,0,
2016-11-28, 17:33:04,VALID,919.689,VALID,0,INVALID,124.063,VALID,169.005,VALID,19.9368,VALID,2,VALID,0.720312,
2016-11-28, 17:34:04,VALID,919.653,VALID,0,INVALID,124.025,VALID,172.873,VALID,19.9758,VALID,20,VALID,1.46875,
2016-11-28, 17:35:04,VALID,919.67,VALID,0,INVALID,123.858,VALID,155.36,VALID,20.0148,VALID,23,VALID,1.39922,
2016-11-28, 17:36:04,VALID,919.661,VALID,0,INVALID,124.231,VALID,133.549,VALID,19.8978,VALID,21,VALID,1.75664,
2016-11-28, 17:43:04,VALID,919.663,VALID,0,INVALID,123.72,VALID,130.971,VALID,19.9758,VALID,9,VALID,0,
2016-11-28, 17:44:04,VALID,919.659,VALID,0,INVALID,123.842,VALID,133.549,VALID,19.9563,VALID,36,VALID,0,
2016-11-28, 17:45:04,VALID,919.642,VALID,0,INVALID,123.766,VALID,144.079,VALID,19.9758,VALID,23,VALID,0.407031,
2016-11-28, 17:46:04,VALID,919.634,VALID,0,INVALID,123.85,VALID,149.773,VALID,19.9758,VALID,348,VALID,0.198437,
2016-11-28, 17:47:04,VALID,919.646,VALID,0,INVALID,123.644,VALID,148.699,VALID,20.0133,VALID,360,VALID,0,
2016-11-28, 17:48:04,VALID,919.622,VALID,0,INVALID,123.454,VALID,152.459,VALID,20.1318,VALID,23,VALID,0,
2016-11-28, 17:49:04,VALID,919.647,VALID,0,INVALID,123.415,VALID,161.484,VALID,20.1498,VALID,21,VALID,0.0328125,
2016-11-28, 17:50:04,VALID,919.65,VALID,0,INVALID,123.903,VALID,154.178,VALID,20.0343,VALID,334,VALID,0.4,
2016-11-28, 17:51:04,VALID,919.653,VALID,0,INVALID,123.896,VALID,141.393,VALID,20.0148,VALID,334,VALID,0.265625,
2016-11-28, 17:52:04,VALID,919.676,VALID,0,INVALID,124.018,VALID,123.88,VALID,19.9953,VALID,328,VALID,0.00351562,
2016-11-28, 18:04:04,VALID,919.565,VALID,0,INVALID,124.346,VALID,134.516,VALID,19.9548,VALID,351,VALID,0,
2016-11-28, 18:05:04,VALID,919.556,VALID,0,INVALID,124.391,VALID,147.517,VALID,19.9158,VALID,340,VALID,0,
2016-11-28, 18:06:04,VALID,919.535,VALID,0,INVALID,124.498,VALID,146.979,VALID,19.9368,VALID,359,VALID,0,
2016-11-28, 18:07:04,VALID,919.578,VALID,0,INVALID,124.437,VALID,144.831,VALID,19.9758,VALID,339,VALID,0,
2016-11-28, 18:08:04,VALID,919.534,VALID,0,INVALID,124.384,VALID,150.632,VALID,20.0538,VALID,5,VALID,0,
2016-11-28, 18:09:04,VALID,919.523,VALID,0,INVALID,124.536,VALID,154.93,VALID,19.9758,VALID,278,VALID,0,
2016-11-28, 18:10:04,VALID,919.527,VALID,0,INVALID,124.506,VALID,158.691,VALID,19.9758,VALID,22,VALID,0,
2016-11-28, 18:11:04,VALID,919.483,VALID,0,INVALID,124.666,VALID,158.153,VALID,19.9173,VALID,357,VALID,0,
2016-11-28, 18:12:04,VALID,919.491,VALID,0,INVALID,124.62,VALID,154.823,VALID,19.9368,VALID,284,VALID,0,
2016-11-28, 18:13:04,VALID,919.466,VALID,0,INVALID,124.567,VALID,150.31,VALID,19.9758,VALID,307,VALID,0,
2016-11-28, 18:14:04,VALID,919.47,VALID,0,INVALID,124.384,VALID,144.831,VALID,20.0928,VALID,307,VALID,0,
2016-11-28, 18:15:04,VALID,919.468,VALID,0,INVALID,124.429,VALID,141.607,VALID,20.1318,VALID,307,VALID,0,
2016-11-28, 18:16:04,VALID,919.436,VALID,0,INVALID,124.452,VALID,135.161,VALID,20.1318,VALID,307,VALID,0,
2016-11-28, 18:17:04,VALID,919.461,VALID,0,INVALID,124.368,VALID,139.351,VALID,20.2098,VALID,307,VALID,0,
2016-11-28, 18:18:04,VALID,919.444,VALID,0,INVALID,124.346,VALID,143.219,VALID,20.2668,VALID,310,VALID,0,
2016-11-28, 18:19:04,VALID,919.436,VALID,0,INVALID,124.49,VALID,146.335,VALID,20.2293,VALID,352,VALID,0,
2016-11-28, 18:20:04,VALID,919.448,VALID,0,INVALID,124.628,VALID,151.492,VALID,20.1903,VALID,346,VALID,0,
2016-11-28, 18:21:04,VALID,919.457,VALID,0,INVALID,124.62,VALID,153.426,VALID,20.1903,VALID,42,VALID,0,
2016-11-28, 18:22:04,VALID,919.426,VALID,0,INVALID,124.589,VALID,146.013,VALID,20.1903,VALID,34,VALID,0,
2016-11-28, 18:23:04,VALID,919.469,VALID,0,INVALID,124.567,VALID,135.161,VALID,20.2098,VALID,14,VALID,0,
2016-11-28, 18:42:04,VALID,919.346,VALID,0,INVALID,124.201,VALID,123.665,VALID,20.1123,VALID,46,VALID,0,
2016-11-28, 18:46:04,VALID,919.29,VALID,0,INVALID,124.018,VALID,125.062,VALID,20.1513,VALID,10,VALID,0,
2016-11-28, 18:47:04,VALID,919.312,VALID,0,INVALID,124.117,VALID,125.814,VALID,20.1318,VALID,21,VALID,0.582812,
2016-11-28, 18:49:04,VALID,919.305,VALID,0,INVALID,124.277,VALID,122.805,VALID,20.0133,VALID,232,VALID,0.573438,
2016-11-28, 18:50:04,VALID,919.298,VALID,0,INVALID,124.285,VALID,138.277,VALID,19.9953,VALID,244,VALID,0,
2016-11-28, 18:51:04,VALID,919.296,VALID,0,INVALID,124.14,VALID,140.533,VALID,20.0538,VALID,244,VALID,0,
2016-11-28, 18:52:04,VALID,919.283,VALID,0.2,INVALID,124.117,VALID,140.103,VALID,20.0733,VALID,161,VALID,0,
2016-11-28, 18:53:04,VALID,919.256,VALID,0,INVALID,124.048,VALID,145.153,VALID,20.0733,VALID,163,VALID,0,
2016-11-28, 18:54:04,VALID,919.255,VALID,0,INVALID,124.025,VALID,147.302,VALID,20.0718,VALID,169,VALID,0,
2016-11-28, 18:55:04,VALID,919.247,VALID,0,INVALID,123.873,VALID,152.244,VALID,20.1708,VALID,85,VALID,0,
2016-11-28, 18:56:04,VALID,919.22,VALID,0,INVALID,124.117,VALID,149.236,VALID,20.1513,VALID,1,VALID,0,
2016-11-28, 18:57:04,VALID,919.254,VALID,0,INVALID,124.193,VALID,147.732,VALID,20.1123,VALID,4,VALID,0,
2016-11-28, 18:58:04,VALID,919.209,VALID,0,INVALID,124.429,VALID,147.194,VALID,20.0538,VALID,263,VALID,0.0613281,
2016-11-28, 18:59:04,VALID,919.229,VALID,0,INVALID,124.483,VALID,143.756,VALID,20.0148,VALID,271,VALID,0,
2016-11-28, 19:00:04,VALID,919.235,VALID,0,INVALID,124.33,VALID,145.475,VALID,20.0928,VALID,16,VALID,0,
2016-11-28, 19:01:04,VALID,919.211,VALID,0,INVALID,124.315,VALID,153.426,VALID,20.1303,VALID,322,VALID,0,
2016-11-28, 19:02:04,VALID,919.184,VALID,0,INVALID,124.384,VALID,161.162,VALID,20.1724,VALID,13,VALID,0,
2016-11-28, 19:03:04,VALID,919.186,VALID,0,INVALID,124.33,VALID,172.873,VALID,20.1708,VALID,10,VALID,0.872656,
2016-11-28, 19:04:04,VALID,919.212,VALID,0,INVALID,124.117,VALID,190.708,VALID,20.2684,VALID,359,VALID,0,
2016-11-28, 19:05:04,VALID,919.138,VALID,0,INVALID,124.475,VALID,205.75,VALID,20.1498,VALID,358,VALID,1.00859,
2016-11-28, 19:06:04,VALID,919.141,VALID,0,INVALID,124.452,VALID,202.956,VALID,20.1708,VALID,360,VALID,1.27305,
2016-11-28, 19:07:04,VALID,919.151,VALID,0,INVALID,124.285,VALID,190.601,VALID,20.2293,VALID,337,VALID,0.009375,
2016-11-28, 19:08:04,VALID,919.133,VALID,0,INVALID,124.429,VALID,200.485,VALID,20.2098,VALID,343,VALID,0,
2016-11-28, 19:09:04,VALID,919.114,VALID,0,INVALID,124.33,VALID,229.602,VALID,20.2489,VALID,12,VALID,0.990234,
2016-11-28, 19:10:04,VALID,919.112,VALID,0,INVALID,124.384,VALID,232.825,VALID,20.2278,VALID,29,VALID,0.967188,
2016-11-28, 19:11:04,VALID,919.121,VALID,0,INVALID,124.445,VALID,204.353,VALID,20.2489,VALID,358,VALID,0.283203,
2016-11-28, 19:12:04,VALID,919.1,VALID,0,INVALID,124.208,VALID,200.378,VALID,20.3058,VALID,32,VALID,0.770312,
2016-11-28, 19:13:04,VALID,919.086,VALID,0,INVALID,123.949,VALID,217.568,VALID,20.4829,VALID,357,VALID,0.295312,
2016-11-28, 19:14:04,VALID,919.066,VALID,0,INVALID,124.468,VALID,235.618,VALID,20.3074,VALID,286,VALID,0.945703,
2016-11-28, 19:15:04,VALID,919.086,VALID,0,INVALID,124.307,VALID,228.42,VALID,20.3854,VALID,29,VALID,0,
2016-11-28, 19:16:04,VALID,919.076,VALID,0,INVALID,124.307,VALID,214.99,VALID,20.4439,VALID,310,VALID,0.0632813,
2016-11-28, 19:17:04,VALID,919.056,VALID,0,INVALID,124.597,VALID,197.907,VALID,20.2668,VALID,322,VALID,0,
2016-11-28, 19:18:04,VALID,919.028,VALID,0,INVALID,124.429,VALID,206.609,VALID,20.3643,VALID,25,VALID,0.428516,
2016-11-28, 19:19:04,VALID,919.037,VALID,0,INVALID,124.513,VALID,218.965,VALID,20.3659,VALID,345,VALID,0,
2016-11-28, 19:20:04,VALID,919.017,VALID,0,INVALID,124.323,VALID,237.23,VALID,20.4423,VALID,360,VALID,1.05781,
2016-11-28, 19:21:04,VALID,919.004,VALID,0,INVALID,124.696,VALID,261.834,VALID,20.3659,VALID,3,VALID,1.27852,
2016-11-28, 19:22:04,VALID,919,VALID,0,INVALID,124.521,VALID,272.256,VALID,20.4049,VALID,14,VALID,1.27188,
2016-11-28, 19:23:04,VALID,918.984,VALID,0,INVALID,124.582,VALID,257.429,VALID,20.3448,VALID,17,VALID,1.42617,
2016-11-28, 19:24:04,VALID,918.974,VALID,0,INVALID,124.315,VALID,229.494,VALID,20.5009,VALID,12,VALID,1.72187,
2016-11-28, 19:25:04,VALID,918.974,VALID,0,INVALID,124.285,VALID,201.237,VALID,20.5804,VALID,15,VALID,0.645312,
2016-11-28, 19:26:04,VALID,918.977,VALID,0,INVALID,124.475,VALID,184.154,VALID,20.5414,VALID,2,VALID,0.571094,
2016-11-28, 19:27:04,VALID,918.963,VALID,0,INVALID,124.49,VALID,187.915,VALID,20.5204,VALID,21,VALID,1.55,
2016-11-28, 19:28:04,VALID,918.966,VALID,0,INVALID,124.689,VALID,180.286,VALID,20.4228,VALID,2,VALID,1.7043,
2016-11-28, 19:29:04,VALID,918.952,VALID,0,INVALID,124.635,VALID,148.269,VALID,20.3433,VALID,24,VALID,1.83008,
2016-11-28, 19:30:04,VALID,918.986,VALID,0,INVALID,124.635,VALID,125.706,VALID,20.3448,VALID,12,VALID,0.698047,
2016-11-28, 19:36:04,VALID,918.909,VALID,0,INVALID,124.323,VALID,150.847,VALID,20.1498,VALID,94,VALID,0,
2016-11-28, 19:37:04,VALID,918.86,VALID,0,INVALID,124.551,VALID,177.923,VALID,20.0913,VALID,19,VALID,1.52734,
2016-11-28, 19:38:04,VALID,918.86,VALID,0,INVALID,124.643,VALID,185.766,VALID,19.9743,VALID,351,VALID,1.99492,
2016-11-28, 19:39:04,VALID,918.819,VALID,0,INVALID,124.521,VALID,166.641,VALID,19.9353,VALID,12,VALID,0.367969,
2016-11-28, 19:40:04,VALID,918.833,VALID,0,INVALID,124.399,VALID,166.104,VALID,19.9548,VALID,360,VALID,1.20117,
2016-11-28, 19:41:04,VALID,918.813,VALID,0,INVALID,124.285,VALID,174.914,VALID,19.9743,VALID,59,VALID,0.257813,
2016-11-28, 19:42:04,VALID,918.812,VALID,0.2,INVALID,124.124,VALID,180.501,VALID,20.0343,VALID,62,VALID,0.496875,
2016-11-28, 19:43:04,VALID,918.757,VALID,0,INVALID,124.231,VALID,181.576,VALID,19.9938,VALID,10,VALID,1.37656,
2016-11-28, 19:44:04,VALID,918.764,VALID,0,INVALID,124.231,VALID,190.063,VALID,19.9743,VALID,6,VALID,1.22695,
2016-11-28, 19:45:04,VALID,918.729,VALID,0,INVALID,124.536,VALID,203.171,VALID,19.8363,VALID,22,VALID,2.11133,
2016-11-28, 19:46:04,VALID,918.713,VALID,0,INVALID,124.589,VALID,208.006,VALID,19.7793,VALID,335,VALID,2.53047,
2016-11-28, 19:47:04,VALID,918.683,VALID,0,INVALID,124.544,VALID,216.494,VALID,19.7208,VALID,4,VALID,2.01719,
2016-11-28, 19:48:04,VALID,918.667,VALID,0,INVALID,124.437,VALID,201.13,VALID,19.7013,VALID,12,VALID,1.83633,
2016-11-28, 19:49:04,VALID,918.656,VALID,0,INVALID,124.307,VALID,191.997,VALID,19.7598,VALID,16,VALID,1.84609,
2016-11-28, 19:50:04,VALID,918.657,VALID,0,INVALID,124.178,VALID,178.46,VALID,19.7988,VALID,302,VALID,0.303906,
2016-11-28, 19:51:04,VALID,918.621,VALID,0,INVALID,124.102,VALID,178.89,VALID,19.7988,VALID,240,VALID,0,
2016-11-28, 19:52:04,VALID,918.642,VALID,0,INVALID,123.919,VALID,176.741,VALID,19.8963,VALID,8,VALID,0.588672,
2016-11-28, 19:53:04,VALID,918.633,VALID,0,INVALID,123.614,VALID,158.368,VALID,20.0328,VALID,34,VALID,0.330469,
2016-11-28, 19:54:04,VALID,918.605,VALID,0,INVALID,123.652,VALID,152.244,VALID,20.0523,VALID,275,VALID,0.880078,
2016-11-28, 19:55:04,VALID,918.569,VALID,0,INVALID,123.82,VALID,139.888,VALID,19.9938,VALID,8,VALID,1.12773,
2016-11-28, 20:07:04,VALID,918.405,VALID,0,INVALID,124.094,VALID,130.863,VALID,19.6818,VALID,7,VALID,2.05117,
2016-11-28, 20:08:04,VALID,918.372,VALID,0,INVALID,124.246,VALID,157.294,VALID,19.5663,VALID,6,VALID,1.975,
2016-11-28, 20:09:04,VALID,918.307,VALID,0,INVALID,124.147,VALID,172.013,VALID,19.5468,VALID,15,VALID,1.43047,
2016-11-28, 20:10:04,VALID,918.292,VALID,0,INVALID,123.957,VALID,177.6,VALID,19.5468,VALID,18,VALID,1.56289,
2016-11-28, 20:11:04,VALID,918.306,VALID,0,INVALID,123.873,VALID,174.807,VALID,19.5858,VALID,341,VALID,1.31602,
2016-11-28, 20:12:04,VALID,918.245,VALID,0,INVALID,123.995,VALID,176.311,VALID,19.4883,VALID,334,VALID,0.886328,
2016-11-28, 20:13:04,VALID,918.277,VALID,0,INVALID,123.949,VALID,180.716,VALID,19.4883,VALID,13,VALID,1.22891,
2016-11-28, 20:14:04,VALID,918.224,VALID,0,INVALID,123.728,VALID,177.385,VALID,19.5648,VALID,32,VALID,1.05313,
2016-11-28, 20:15:04,VALID,918.236,VALID,0,INVALID,123.553,VALID,169.435,VALID,19.6233,VALID,26,VALID,1.51094,
2016-11-28, 20:16:04,VALID,918.2,VALID,0,INVALID,123.751,VALID,148.484,VALID,19.5453,VALID,21,VALID,1.9332,
2016-11-28, 20:19:04,VALID,918.177,VALID,0,INVALID,123.53,VALID,130.756,VALID,19.6248,VALID,29,VALID,0.683984,
2016-11-28, 20:21:04,VALID,918.139,VALID,0,INVALID,123.469,VALID,133.764,VALID,19.6623,VALID,20,VALID,1.5875,
2016-11-28, 20:32:04,VALID,917.957,VALID,0,INVALID,122.828,VALID,137.525,VALID,19.5273,VALID,14,VALID,0.575,
2016-11-28, 20:33:04,VALID,917.951,VALID,0,INVALID,122.928,VALID,143.004,VALID,19.5078,VALID,358,VALID,1.10039,
2016-11-28, 20:34:04,VALID,917.924,VALID,0,INVALID,122.767,VALID,139.781,VALID,19.5273,VALID,5,VALID,1.12734,
2016-11-28, 20:35:04,VALID,917.907,VALID,0,INVALID,122.714,VALID,146.335,VALID,19.5663,VALID,18,VALID,1.67109,
2016-11-28, 20:36:04,VALID,917.89,VALID,0,INVALID,122.943,VALID,157.509,VALID,19.5273,VALID,10,VALID,1.76484,
2016-11-28, 20:37:04,VALID,917.868,VALID,0,INVALID,123.103,VALID,142.682,VALID,19.4493,VALID,1,VALID,1.74727,
2016-11-28, 20:38:04,VALID,917.853,VALID,0,INVALID,123.233,VALID,135.483,VALID,19.3713,VALID,15,VALID,1.41367,
2016-11-28, 20:39:04,VALID,917.854,VALID,0,INVALID,122.912,VALID,141.607,VALID,19.4508,VALID,8,VALID,1.61094,
2016-11-28, 20:40:04,VALID,917.884,VALID,0,INVALID,122.653,VALID,143.971,VALID,19.5078,VALID,291,VALID,0.635156,
2016-11-28, 20:41:04,VALID,917.845,VALID,0,INVALID,122.684,VALID,133.979,VALID,19.4883,VALID,313,VALID,0.262891,
2016-11-28, 20:46:04,VALID,917.754,VALID,0,INVALID,122.729,VALID,132.26,VALID,19.4298,VALID,26,VALID,1.28164,
2016-11-28, 20:47:04,VALID,917.742,VALID,0,INVALID,122.592,VALID,173.303,VALID,19.5078,VALID,357,VALID,0.610547,
2016-11-28, 20:48:04,VALID,917.739,VALID,0,INVALID,122.394,VALID,201.882,VALID,19.5273,VALID,13,VALID,1.68281,
2016-11-28, 20:49:04,VALID,917.685,VALID,0,INVALID,122.249,VALID,198.551,VALID,19.6458,VALID,15,VALID,1.21563,
2016-11-28, 20:50:04,VALID,917.712,VALID,0,INVALID,121.868,VALID,196.94,VALID,19.7613,VALID,20,VALID,1.22695,
2016-11-28, 20:51:04,VALID,917.665,VALID,0,INVALID,121.822,VALID,185.873,VALID,19.8393,VALID,29,VALID,1.13555,
2016-11-28, 20:52:04,VALID,917.656,VALID,0,INVALID,121.715,VALID,185.658,VALID,19.9383,VALID,19,VALID,1.03555,
2016-11-28, 20:53:04,VALID,917.649,VALID,0,INVALID,121.99,VALID,171.369,VALID,19.9188,VALID,30,VALID,0.636719,
2016-11-28, 20:54:04,VALID,917.605,VALID,0,INVALID,121.898,VALID,159.872,VALID,19.9383,VALID,35,VALID,0.266797,
2016-11-28, 20:55:04,VALID,917.582,VALID,0,INVALID,121.914,VALID,136.773,VALID,19.9968,VALID,358,VALID,1.1668,
2016-11-28, 20:56:04,VALID,917.572,VALID,0,INVALID,121.83,VALID,135.591,VALID,20.0358,VALID,9,VALID,1.11211,
2016-11-28, 20:57:04,VALID,917.521,VALID,0,INVALID,121.891,VALID,143.434,VALID,20.0538,VALID,336,VALID,0.812891,
2016-11-28, 20:58:04,VALID,917.496,VALID,0,INVALID,122.127,VALID,129.896,VALID,20.0749,VALID,18,VALID,1.39023,
2016-11-28, 20:59:04,VALID,917.504,VALID,0,INVALID,122.272,VALID,126.781,VALID,20.0538,VALID,3,VALID,1.14102,
2016-11-28, 21:05:04,VALID,917.291,VALID,0,INVALID,123.522,VALID,131.938,VALID,19.7403,VALID,306,VALID,0.364062,
2016-11-28, 21:13:04,VALID,917.122,VALID,0,INVALID,123.972,VALID,144.616,VALID,19.7223,VALID,329,VALID,0.0398437,
2016-11-28, 21:14:04,VALID,917.087,VALID,0,INVALID,124.048,VALID,138.277,VALID,19.6833,VALID,18,VALID,1.45547,